Weather History for KBNL - June, 2013

Change the Weather History Date:

Thursday, June 20, 2013

  Actual Average (KOGB) Record (KOGB)
Temperature  
Mean Temperature 76 °F 79 °F  
Max Temperature 84 °F 90 °F 101 °F (2011)
Min Temperature 69 °F 69 °F 58 °F (1961)
Degree Days  
Heating Degree Days 0 0  
Month to date heating degree days 0  
Since 1 June heating degree days 0  
Since 1 July heating degree days 2332  
Cooling Degree Days 12 14  
Month to date cooling degree days 249  
Year to date cooling degree days 552  
Since 1 June cooling degree days 249  
Growing Degree Days 26 (Base 50)    
Moisture  
Dew Point 67 °F    
Average Humidity 76    
Maximum Humidity 100    
Minimum Humidity 48    
Precipitation  
Precipitation 0.00 in 0.19 in 1.46 in (1972)
Month to date precipitation 3.39  
Year to date precipitation 21.01  
Sea Level Pressure  
Sea Level Pressure 30.14 in    
Wind  
Wind Speed 6 mph (ENE)    
Max Wind Speed 16 mph    
Max Gust Speed 21 mph    
Visibility 10 miles    
Events      
T = Trace of Precipitation, MM = Missing Value Source: NWS Daily Summary

Daily Weather History Graph

Daily Weather History Graph

Search for Another Location

Airport or City:

Trip Planner

Search our weather history database for the weather conditions in past years. The results will help you decide how hot, cold, wet, or windy it might be!

Date:

Astronomy

Jun. 20, 2013 Rise Set
Actual Time 6:16 AM EDT 8:37 PM EDT
Civil Twilight 5:47 AM EDT 9:06 PM EDT
Nautical Twilight 5:12 AM EDT 9:42 PM EDT
Astronomical Twilight 4:33 AM EDT 10:20 PM EDT
Moon 5:43 PM EDT (6/20) 3:35 AM EDT (6/20)
Length of Visible Light 15h 19m
Length of Day
14h 21m
Waxing Gibbous, 89% of the Moon is Illuminated
Jun 20
Waxing Gibbous
Jun 23
Full
Jun 30
Last Quarter
Jul 8
New
Jul 15
First Quarter

Hourly Weather History & Observations

Time (EDT) Temp. Heat Index Dew Point Humidity Pressure Visibility Wind Dir Wind Speed Gust Speed Precip Events Conditions
12:15 AM 71.6 °F - 68.0 °F 88% 30.08 in 10.0 mi Calm Calm - N/A   Clear
12:35 AM 69.8 °F - 68.0 °F 94% 30.07 in 10.0 mi Calm Calm - N/A   Clear
12:55 AM 69.8 °F - 68.0 °F 94% 30.08 in 10.0 mi ENE 3.5 mph - N/A   Clear
1:15 AM 69.8 °F - 68.0 °F 94% 30.07 in 10.0 mi NE 3.5 mph - N/A   Clear
1:35 AM 69.8 °F - 68.0 °F 94% 30.07 in 10.0 mi Calm Calm - N/A   Scattered Clouds
1:55 AM 69.8 °F - 68.0 °F 94% 30.07 in 10.0 mi NNE 4.6 mph - N/A   Overcast
2:15 AM 69.8 °F - 68.0 °F 94% 30.07 in 10.0 mi NE 3.5 mph - N/A   Overcast
2:35 AM 69.8 °F - 68.0 °F 94% 30.07 in 10.0 mi NE 4.6 mph - N/A   Overcast
2:55 AM 69.8 °F - 68.0 °F 94% 30.08 in 10.0 mi NNE 4.6 mph - N/A   Overcast
3:15 AM 69.8 °F - 68.0 °F 94% 30.07 in 10.0 mi NE 5.8 mph - N/A   Overcast
3:35 AM 69.8 °F - 68.0 °F 94% 30.07 in 7.0 mi NE 4.6 mph - N/A   Heavy Drizzle
3:55 AM 69.8 °F - 68.0 °F 94% 30.07 in 10.0 mi NE 4.6 mph - N/A   Overcast
4:15 AM 69.8 °F - 68.0 °F 94% 30.07 in 10.0 mi NE 4.6 mph - N/A   Overcast
4:35 AM 69.8 °F - 68.0 °F 94% 30.08 in 10.0 mi Calm Calm - N/A   Overcast
4:55 AM 69.8 °F - 68.0 °F 94% 30.08 in 10.0 mi NNE 5.8 mph - N/A   Overcast
5:15 AM 69.8 °F - 68.0 °F 94% 30.08 in 10.0 mi NNE 5.8 mph - N/A   Overcast
5:35 AM 69.8 °F - 68.0 °F 94% 30.08 in 10.0 mi NNE 8.1 mph - N/A   Mostly Cloudy
5:55 AM 69.8 °F - 68.0 °F 94% 30.09 in 10.0 mi NNE 8.1 mph - N/A   Overcast
6:15 AM 69.8 °F - 68.0 °F 94% 30.11 in 10.0 mi NNE 6.9 mph - N/A   Overcast
6:35 AM 69.8 °F - 68.0 °F 94% 30.12 in 10.0 mi NE 6.9 mph - N/A   Overcast
6:55 AM 69.8 °F - 69.8 °F 100% 30.12 in 9.0 mi NE 8.1 mph - N/A   Overcast
7:15 AM 69.8 °F - 69.8 °F 100% 30.13 in 6.0 mi NE 5.8 mph - N/A   Overcast
7:35 AM 69.8 °F - 69.8 °F 100% 30.14 in 8.0 mi NE 6.9 mph - N/A   Overcast
7:55 AM 71.6 °F - 69.8 °F 94% 30.14 in 9.0 mi NE 6.9 mph - N/A   Overcast
8:15 AM 71.6 °F - 69.8 °F 94% 30.15 in 10.0 mi ENE 8.1 mph - N/A   Overcast
8:35 AM 71.6 °F - 69.8 °F 94% 30.15 in 10.0 mi NE 10.4 mph - N/A   Overcast
8:55 AM 71.6 °F - 69.8 °F 94% 30.16 in 10.0 mi NE 8.1 mph - N/A   Light Drizzle
9:15 AM 71.6 °F - 69.8 °F 94% 30.16 in 10.0 mi East 9.2 mph - N/A   Mostly Cloudy
9:35 AM 73.4 °F - 68.0 °F 83% 30.17 in 10.0 mi ENE 9.2 mph - N/A   Mostly Cloudy
9:55 AM 75.2 °F - 69.8 °F 83% 30.17 in 10.0 mi NE 10.4 mph - N/A   Mostly Cloudy
10:15 AM 75.2 °F - 69.8 °F 83% 30.17 in 10.0 mi ENE 8.1 mph - N/A   Mostly Cloudy
10:35 AM 77.0 °F - 69.8 °F 78% 30.16 in 10.0 mi ENE 10.4 mph - N/A   Scattered Clouds
10:55 AM 78.8 °F - 68.0 °F 69% 30.17 in 10.0 mi NE 12.7 mph - N/A   Partly Cloudy
11:15 AM 80.6 °F 83.2 °F 68.0 °F 65% 30.17 in 10.0 mi East 10.4 mph - N/A   Scattered Clouds
11:35 AM 80.6 °F 82.7 °F 66.2 °F 61% 30.17 in 10.0 mi NE 11.5 mph - N/A   Scattered Clouds
11:55 AM 80.6 °F 82.7 °F 66.2 °F 61% 30.18 in 10.0 mi NE 10.4 mph - N/A   Mostly Cloudy
12:15 PM 80.6 °F 82.7 °F 66.2 °F 61% 30.18 in 10.0 mi ENE 6.9 mph - N/A   Scattered Clouds
12:35 PM 80.6 °F 82.7 °F 66.2 °F 61% 30.18 in 10.0 mi NE 10.4 mph - N/A   Scattered Clouds
12:55 PM 80.6 °F 82.7 °F 66.2 °F 61% 30.18 in 10.0 mi ENE 8.1 mph - N/A   Mostly Cloudy
1:15 PM 82.4 °F 84.6 °F 66.2 °F 58% 30.18 in 10.0 mi ENE 12.7 mph - N/A   Mostly Cloudy
1:35 PM 82.4 °F 84.6 °F 66.2 °F 58% 30.17 in 10.0 mi NE 13.8 mph 17.3 mph N/A   Mostly Cloudy
1:55 PM 82.4 °F 84.6 °F 66.2 °F 58% 30.17 in 10.0 mi ENE 11.5 mph - N/A   Mostly Cloudy
2:15 PM 82.4 °F 83.9 °F 64.4 °F 54% 30.17 in 10.0 mi ENE 11.5 mph 18.4 mph N/A   Mostly Cloudy
2:35 PM 84.2 °F 85.6 °F 64.4 °F 51% 30.16 in 10.0 mi ENE 11.5 mph 17.3 mph N/A   Scattered Clouds
2:55 PM 84.2 °F 85.0 °F 62.6 °F 48% 30.16 in 10.0 mi ENE 13.8 mph 20.7 mph N/A   Clear
3:15 PM 84.2 °F 85.0 °F 62.6 °F 48% 30.16 in 10.0 mi ENE 16.1 mph 20.7 mph N/A   Scattered Clouds
3:35 PM 84.2 °F 85.6 °F 64.4 °F 51% 30.16 in 10.0 mi East 11.5 mph - N/A   Scattered Clouds
3:55 PM 84.2 °F 85.6 °F 64.4 °F 51% 30.15 in 10.0 mi East 10.4 mph 19.6 mph N/A   Clear
4:15 PM 84.2 °F 85.6 °F 64.4 °F 51% 30.15 in 10.0 mi East 12.7 mph - N/A   Partly Cloudy
4:35 PM 84.2 °F 85.6 °F 64.4 °F 51% 30.15 in 10.0 mi ENE 13.8 mph 17.3 mph N/A   Partly Cloudy
4:55 PM 84.2 °F 85.6 °F 64.4 °F 51% 30.15 in 10.0 mi East 10.4 mph - N/A   Partly Cloudy
5:15 PM 84.2 °F 85.6 °F 64.4 °F 51% 30.14 in 10.0 mi East 11.5 mph 17.3 mph N/A   Partly Cloudy
5:35 PM 84.2 °F 85.6 °F 64.4 °F 51% 30.14 in 10.0 mi ENE 8.1 mph - N/A   Partly Cloudy
5:55 PM 82.4 °F 83.9 °F 64.4 °F 54% 30.13 in 10.0 mi ENE 9.2 mph - N/A   Scattered Clouds
6:15 PM 82.4 °F 83.9 °F 64.4 °F 54% 30.14 in 10.0 mi East 9.2 mph - N/A   Partly Cloudy
6:35 PM 84.2 °F 85.6 °F 64.4 °F 51% 30.13 in 10.0 mi ENE 12.7 mph - N/A   Partly Cloudy
6:55 PM 82.4 °F 83.9 °F 64.4 °F 54% 30.13 in 10.0 mi East 10.4 mph - N/A   Partly Cloudy
7:15 PM 82.4 °F 83.9 °F 64.4 °F 54% 30.13 in 10.0 mi East 10.4 mph - N/A   Clear
7:35 PM 82.4 °F 83.9 °F 64.4 °F 54% 30.14 in 10.0 mi East 8.1 mph - N/A   Clear
7:55 PM 80.6 °F 82.3 °F 64.4 °F 58% 30.14 in 10.0 mi East 5.8 mph - N/A   Clear
8:15 PM 80.6 °F 82.7 °F 66.2 °F 61% 30.14 in 10.0 mi East 5.8 mph - N/A   Clear
8:35 PM 78.8 °F - 66.2 °F 65% 30.14 in 10.0 mi East 3.5 mph - N/A   Clear
8:55 PM 77.0 °F - 66.2 °F 69% 30.15 in 10.0 mi Calm Calm - N/A   Clear
9:15 PM 75.2 °F - 66.2 °F 73% 30.15 in 10.0 mi Calm Calm - N/A   Clear
9:35 PM 73.4 °F - 66.2 °F 78% 30.16 in 10.0 mi Calm Calm - N/A   Clear
9:55 PM 71.6 °F - 66.2 °F 83% 30.17 in 10.0 mi Calm Calm - N/A   Clear
10:15 PM 71.6 °F - 66.2 °F 83% 30.18 in 10.0 mi Calm Calm - N/A   Clear
10:35 PM 71.6 °F - 66.2 °F 83% 30.18 in 10.0 mi Calm Calm - N/A   Clear
10:55 PM 71.6 °F - 66.2 °F 83% 30.18 in 10.0 mi Calm Calm - N/A   Clear
11:15 PM 69.8 °F - 66.2 °F 88% 30.19 in 10.0 mi Calm Calm - N/A   Clear
11:35 PM 69.8 °F - 66.2 °F 88% 30.19 in 10.0 mi Calm Calm - N/A   Clear
11:55 PM 69.8 °F - 66.2 °F 88% 30.19 in 10.0 mi Calm Calm - N/A   Clear